Weather History for Wadena, MN

Change the Weather History Date:

Saturday, February 9, 2013

  Actual Average Record
Temperature  
Mean Temperature 24 °F -  
Max Temperature 32 °F 19 °F 48 °F (1991)
Min Temperature 17 °F -3 °F -33 °F (1933)
Degree Days  
Heating Degree Days 40    
Moisture  
Dew Point 21 °F    
Average Humidity 94    
Maximum Humidity 100    
Minimum Humidity 60    
Precipitation  
Precipitation 0.00 in - - ()
Sea Level Pressure  
Sea Level Pressure 29.93 in    
Wind  
Wind Speed 10 mph (SSE)    
Max Wind Speed 16 mph    
Max Gust Speed 20 mph    
Visibility 4 miles    
Events      
Averages and records for this station are not official NWS values.
T = Trace of Precipitation, MM = Missing Value Source: NWS Daily Summary

Daily Weather History Graph

Daily Weather History Graph

Search for Another Location

Airport:

Trip Planner

Search our weather history database for the weather conditions in past years. The results will help you decide how hot, cold, wet, or windy it might be!

Date:

Astronomy

Feb. 09, 2013 Rise Set
Actual Time 7:33 AM CST 5:37 PM CST
Civil Twilight 7:01 AM CST 6:09 PM CST
Nautical Twilight 6:26 AM CST 6:44 PM CST
Astronomical Twilight 5:51 AM CST 7:19 PM CST
Moon 6:44 AM CST (2/9) 5:23 PM CST (2/9)
Length of Visible Light 11h 07m
Length of Day
10h 04m
Waning Crescent, 0% of the Moon is Illuminated
Feb 9
Waning Crescent
Feb 10
New
Feb 17
First Quarter
Feb 25
Full
Mar 4
Last Quarter

Hourly Weather History & Observations

Time (CST) Temp. Windchill Dew Point Humidity Pressure Visibility Wind Dir Wind Speed Gust Speed Precip Events Conditions
12:15 AM 17.6 °F 6.4 °F 15.8 °F 93% 30.06 in 10.0 mi SE 9.2 mph - N/A   Overcast
12:35 AM 17.6 °F 7.3 °F 15.8 °F 93% 30.05 in 10.0 mi SE 8.1 mph - N/A   Overcast
12:53 AM 17.6 °F 6.4 °F 15.8 °F 93% 30.05 in 10.0 mi SE 9.2 mph - N/A   Overcast
1:14 AM 19.4 °F 7.9 °F 17.6 °F 93% 30.04 in 10.0 mi SE 10.4 mph - N/A   Overcast
1:35 AM 19.4 °F 7.9 °F 17.6 °F 93% 30.03 in 10.0 mi SE 10.4 mph - N/A   Overcast
1:53 AM 19.4 °F 7.9 °F 17.6 °F 93% 30.02 in 10.0 mi SE 10.4 mph - N/A   Overcast
2:14 AM 19.4 °F 9.5 °F 17.6 °F 93% 30.02 in 10.0 mi SE 8.1 mph - N/A   Overcast
2:34 AM 19.4 °F 7.9 °F 17.6 °F 93% 30.02 in 10.0 mi SSE 10.4 mph - N/A   Overcast
2:53 AM 19.4 °F 7.9 °F 17.6 °F 93% 30.01 in 10.0 mi SSE 10.4 mph - N/A   Overcast
3:15 AM 19.4 °F 7.9 °F 17.6 °F 93% 30.01 in 10.0 mi SSE 10.4 mph - N/A   Overcast
3:35 AM 21.2 °F 10.9 °F 17.6 °F 86% 30.00 in 10.0 mi SSE 9.2 mph - N/A   Overcast
3:53 AM 21.2 °F 10.9 °F 17.6 °F 86% 30.00 in 10.0 mi SSE 9.2 mph - N/A   Overcast
4:14 AM 21.2 °F 10.1 °F 19.4 °F 93% 29.99 in 10.0 mi South 10.4 mph - N/A   Overcast
4:35 AM 21.2 °F 8.9 °F 19.4 °F 93% 29.98 in 10.0 mi SSE 12.7 mph 17.3 mph N/A   Overcast
4:52 AM 21.2 °F 10.1 °F 19.4 °F 93% 29.98 in 7.0 mi SSE 10.4 mph - N/A   Overcast
5:15 AM 21.2 °F 8.9 °F 19.4 °F 93% 29.97 in 7.0 mi SSE 12.7 mph 17.3 mph N/A   Overcast
5:35 AM 21.2 °F 10.1 °F 19.4 °F 93% 29.98 in 7.0 mi South 10.4 mph - N/A   Overcast
5:53 AM 21.2 °F 10.1 °F 19.4 °F 93% 29.97 in 7.0 mi SSE 10.4 mph - N/A   Overcast
6:15 AM 21.2 °F 9.5 °F 19.4 °F 93% 29.97 in 7.0 mi South 11.5 mph - N/A   Overcast
6:35 AM 21.2 °F 10.1 °F 19.4 °F 93% 29.97 in 5.0 mi South 10.4 mph - N/A   Overcast
6:53 AM 21.2 °F 9.5 °F 19.4 °F 93% 29.97 in 5.0 mi South 11.5 mph - N/A   Overcast
7:15 AM 21.2 °F 9.5 °F 19.4 °F 93% 29.96 in 5.0 mi SSE 11.5 mph 18.4 mph N/A   Overcast
7:35 AM 32.0 °F 23.0 °F 19.4 °F 60% 20.07 in 5.0 mi South 11.5 mph 19.6 mph N/A   Overcast
7:53 AM 21.2 °F 8.9 °F 19.4 °F 93% 29.96 in 4.0 mi South 12.7 mph - N/A   Overcast
8:14 AM 21.2 °F 9.5 °F 19.4 °F 93% 29.96 in 4.0 mi South 11.5 mph - N/A   Overcast
8:34 AM 21.2 °F 8.9 °F 19.4 °F 93% 29.96 in 4.0 mi South 12.7 mph - N/A   Overcast
8:53 AM 21.2 °F 7.8 °F 19.4 °F 93% 29.96 in 4.0 mi South 15.0 mph - N/A   Overcast
9:15 AM 21.2 °F 8.9 °F 19.4 °F 93% 29.95 in 3.0 mi South 12.7 mph 18.4 mph N/A   Overcast
9:35 AM 21.2 °F 8.3 °F 21.2 °F 100% 29.95 in 3.0 mi South 13.8 mph 17.3 mph N/A   Overcast
9:52 AM 21.2 °F 7.8 °F 21.2 °F 100% 29.95 in 3.0 mi South 15.0 mph - N/A   Overcast
10:15 AM 23.0 °F 10.6 °F 21.2 °F 93% 29.95 in 3.0 mi South 13.8 mph - N/A   Overcast
10:35 AM 23.0 °F 11.7 °F 21.2 °F 93% 29.95 in 3.0 mi South 11.5 mph - N/A   Overcast
10:53 AM 23.0 °F 10.6 °F 21.2 °F 93% 29.95 in - South 13.8 mph 17.3 mph N/A   Unknown
11:15 AM 23.0 °F 9.6 °F 21.2 °F 93% 29.94 in 2.5 mi South 16.1 mph - N/A   Overcast
11:34 AM 23.0 °F 9.6 °F 21.2 °F 93% 29.94 in 2.5 mi South 16.1 mph - N/A   Overcast
11:53 AM 24.8 °F 14.0 °F 21.2 °F 86% 29.94 in 2.5 mi South 11.5 mph 18.4 mph N/A   Overcast
12:15 PM 24.8 °F 14.6 °F 21.2 °F 86% 29.93 in 2.5 mi South 10.4 mph - N/A   Overcast
12:35 PM 24.8 °F 14.0 °F 21.2 °F 86% 29.92 in 2.5 mi South 11.5 mph 17.3 mph N/A   Overcast
12:53 PM 24.8 °F 14.0 °F 21.2 °F 86% 29.92 in 2.5 mi South 11.5 mph - N/A   Overcast
1:14 PM 24.8 °F 14.0 °F 21.2 °F 86% 29.91 in 2.5 mi South 11.5 mph - N/A   Overcast
1:35 PM 24.8 °F 14.6 °F 21.2 °F 86% 29.90 in 2.5 mi South 10.4 mph - N/A   Overcast
1:53 PM 24.8 °F 12.9 °F 23.0 °F 93% 29.90 in 2.5 mi South 13.8 mph - N/A   Overcast
2:15 PM 24.8 °F 15.3 °F 23.0 °F 93% 29.89 in 2.5 mi South 9.2 mph - N/A   Overcast
2:35 PM 24.8 °F 14.6 °F 23.0 °F 93% 29.89 in 2.0 mi South 10.4 mph - N/A   Overcast
3:15 PM 24.8 °F 14.6 °F 23.0 °F 93% 29.89 in 1.5 mi South 10.4 mph - N/A   Overcast
3:35 PM 24.8 °F 15.3 °F 24.8 °F 100% 29.88 in 1.5 mi SSE 9.2 mph - N/A   Overcast
3:53 PM 24.8 °F 13.4 °F 24.8 °F 100% 29.88 in 1.8 mi SSE 12.7 mph - N/A   Overcast
4:15 PM 24.8 °F 14.6 °F 24.8 °F 100% 29.88 in 1.8 mi SSE 10.4 mph - N/A   Overcast
4:35 PM 24.8 °F 16.1 °F 24.8 °F 100% 29.88 in 2.0 mi SSE 8.1 mph - N/A   Overcast
4:53 PM 24.8 °F 16.1 °F 24.8 °F 100% 29.88 in 2.0 mi SSE 8.1 mph - N/A   Overcast
5:15 PM 24.8 °F 16.1 °F 24.8 °F 100% 29.88 in 2.0 mi SE 8.1 mph - N/A   Overcast
5:35 PM 24.8 °F 16.9 °F 24.8 °F 100% 29.88 in 2.0 mi SE 6.9 mph - N/A   Overcast
5:52 PM 24.8 °F 16.9 °F 24.8 °F 100% 29.88 in 3.0 mi SE 6.9 mph - N/A   Overcast
6:15 PM 24.8 °F 17.9 °F 24.8 °F 100% 29.88 in 2.5 mi SE 5.8 mph - N/A   Overcast
6:35 PM 24.8 °F 16.9 °F 24.8 °F 100% 29.88 in 2.5 mi ESE 6.9 mph - N/A   Overcast
6:53 PM 24.8 °F 16.9 °F 24.8 °F 100% 29.88 in 2.5 mi ESE 6.9 mph - N/A   Overcast
7:34 PM 24.8 °F 16.9 °F 24.8 °F 100% 29.88 in 2.0 mi ESE 6.9 mph - N/A   Overcast
7:53 PM 24.8 °F 16.9 °F 24.8 °F 100% 29.88 in 2.0 mi ESE 6.9 mph - N/A   Overcast
8:15 PM 24.8 °F 17.9 °F 24.8 °F 100% 29.87 in 2.0 mi East 5.8 mph - N/A   Overcast
8:35 PM 24.8 °F 16.1 °F 24.8 °F 100% 29.88 in 2.5 mi ESE 8.1 mph - N/A   Overcast
8:52 PM 24.8 °F 16.9 °F 24.8 °F 100% 29.88 in 2.5 mi ESE 6.9 mph - N/A   Overcast
9:15 PM 24.8 °F 17.9 °F 24.8 °F 100% 29.87 in 2.0 mi ESE 5.8 mph - N/A   Overcast
9:35 PM 24.8 °F 16.1 °F 24.8 °F 100% 29.87 in 2.0 mi ESE 8.1 mph - N/A   Overcast
9:53 PM 24.8 °F 17.9 °F 24.8 °F 100% 29.87 in 2.0 mi ESE 5.8 mph - N/A   Overcast
10:15 PM 24.8 °F 16.9 °F 24.8 °F 100% 29.87 in 1.8 mi East 6.9 mph - N/A   Overcast
10:35 PM 24.8 °F 16.9 °F 24.8 °F 100% 29.86 in 1.5 mi East 6.9 mph - N/A   Overcast
10:53 PM 24.8 °F 16.9 °F 24.8 °F 100% 29.85 in 1.2 mi East 6.9 mph - N/A   Overcast
11:15 PM 24.8 °F 16.1 °F 24.8 °F 100% 29.85 in 1.5 mi East 8.1 mph - N/A   Overcast
11:34 PM 24.8 °F 16.1 °F 24.8 °F 100% 29.84 in 1.8 mi ESE 8.1 mph - N/A   Overcast
11:53 PM 24.8 °F 16.1 °F 24.8 °F 100% 29.84 in 1.8 mi East 8.1 mph - N/A   Overcast